Location: Newark
(44.3681°N, 100.3364°W)
Time: 01:33:06
(UTC+00:00)

deb Explorer IX - Pass Details

Date: 20 February 2020
Orbit: 547 x 1100 km, 38.8° (Epoch: 06 April)

Event Time Altitude Azimuth Distance (km) Brightness Sun altitude
Rises 21:46:55 0° 267° (W) 2,715 ? 22.5°
Reaches altitude 10° 21:49:20 10° 254° (WSW) 1,843 ? 22.1°
Maximum altitude 21:52:53 27° 196° (SSW) 1,141 ? 21.7°
Drops below altitude 10° 21:56:42 10° 139° (SE) 1,995 ? 21.2°
Sets 21:59:27 0° 127° (SE) 2,988 ? 20.8°
